HSKA

Details ICAO HSKA (KSL)
Name KASSALA
Region Sudan and South Sudan
Timezone Africa/Khartoum (UTC+2.0)
Plans Departing 3
Arriving 3
Stats Elevation 1,671 ft / 509 m (AMSL)
Location 15.385886° 36.328170°
Runways 1
Magnetic Variation 3.235° E
Sunrise 2018-05-27 03:04:57 UTC / 2018-05-27 05:04:57 Local
Sunset 2018-05-27 16:01:36 UTC / 2018-05-27 18:01:36 Local
Advertisement - Login to hide

Runways

ID Width Length Bearing (true) Bearing (mag) Surface Threshold Offset Overrun Length
02 148 ft / 45 m 8,234 ft / 2,510 m 21.91° 18.67° Asphalt 0 ft / 0 m 215 ft / 66 m
20 148 ft / 45 m 8,234 ft / 2,510 m 201.91° 198.67° Asphalt 0 ft / 0 m 185 ft / 56 m

Map

Weather


0- 5 10 15 20 25 30 35+ Temperature / ° C

Clouds and Precipitation
Forecast for 2018-05-26 18:00 UTC. Updated 5 hours ago

Ground ~20,000 ft ~40,000 ft Winds

METAR

Not found

TAF

TAF TAF HSKA 261700Z 2618/2724 VRB03KT CAVOK

Frequencies

Tower 118.20 MHz TWR
Warning: Do not use this data for real-world aviation or navigation. No guarantee of current accuracy is given.